TimeCDT,TemperatureF,Dew PointF,Humidity,Sea Level PressureIn,VisibilityMPH,Wind Direction,Wind SpeedMPH,Gust SpeedMPH,PrecipitationIn,Events,Conditions,WindDirDegrees,DateUTC
12:15 AM,58.5,41.4,53,30.02,10.0,East,10.4,-,N/A,,Clear,100,2013-03-28 05:15:00
12:35 AM,57.2,41.5,56,30.02,10.0,East,9.2,-,N/A,,Clear,100,2013-03-28 05:35:00
12:55 AM,55.9,41.9,59,30.02,10.0,East,9.2,-,N/A,,Clear,100,2013-03-28 05:55:00
1:15 AM,54.9,41.9,62,30.02,10.0,East,8.1,-,N/A,,Clear,90,2013-03-28 06:15:00
1:35 AM,54.0,42.1,64,30.02,10.0,East,8.1,-,N/A,,Clear,100,2013-03-28 06:35:00
1:55 AM,52.9,42.1,67,30.02,10.0,East,5.8,-,N/A,,Clear,80,2013-03-28 06:55:00
2:15 AM,52.0,41.9,69,30.03,10.0,East,3.5,-,N/A,,Clear,80,2013-03-28 07:15:00
2:35 AM,51.8,41.9,69,30.03,10.0,Calm,Calm,-,N/A,,Clear,0,2013-03-28 07:35:00
2:55 AM,51.8,42.4,70,30.03,10.0,East,3.5,-,N/A,,Clear,80,2013-03-28 07:55:00
3:15 AM,50.0,41.5,73,30.03,10.0,East,4.6,-,N/A,,Clear,80,2013-03-28 08:15:00
3:35 AM,48.2,40.5,75,30.02,10.0,ENE,5.8,-,N/A,,Clear,60,2013-03-28 08:35:00
3:55 AM,48.2,41.4,77,30.02,10.0,ENE,8.1,-,N/A,,Clear,60,2013-03-28 08:55:00
4:15 AM,48.0,41.7,79,30.01,10.0,ENE,9.2,-,N/A,,Clear,70,2013-03-28 09:15:00
4:35 AM,46.8,41.2,81,30.01,10.0,ENE,5.8,-,N/A,,Clear,70,2013-03-28 09:35:00
4:55 AM,46.0,41.0,83,30.02,10.0,ENE,5.8,-,N/A,,Clear,60,2013-03-28 09:55:00
5:15 AM,47.5,42.8,84,30.02,10.0,Calm,Calm,-,N/A,,Clear,0,2013-03-28 10:15:00
5:35 AM,47.3,42.4,83,30.02,10.0,Calm,Calm,-,N/A,,Clear,0,2013-03-28 10:35:00
5:55 AM,46.0,41.7,85,30.02,10.0,Calm,Calm,-,N/A,,Clear,0,2013-03-28 10:55:00
6:15 AM,45.9,41.5,85,30.02,10.0,Calm,Calm,-,N/A,,Clear,0,2013-03-28 11:15:00
6:35 AM,42.6,38.3,85,30.03,10.0,North,3.5,-,N/A,,Clear,350,2013-03-28 11:35:00
6:55 AM,42.1,37.6,84,30.03,10.0,Calm,Calm,-,N/A,,Clear,0,2013-03-28 11:55:00
7:15 AM,41.5,37.4,85,30.04,10.0,Calm,Calm,-,N/A,,Clear,0,2013-03-28 12:15:00
7:35 AM,43.0,39.2,86,30.05,10.0,Calm,Calm,-,N/A,,Clear,0,2013-03-28 12:35:00
7:55 AM,43.0,39.2,86,30.05,10.0,Calm,Calm,-,N/A,,Clear,0,2013-03-28 12:55:00
8:15 AM,43.7,39.7,86,30.06,10.0,NW,3.5,-,N/A,,Clear,310,2013-03-28 13:15:00
8:35 AM,44.1,39.9,85,30.06,10.0,WNW,4.6,-,N/A,,Clear,290,2013-03-28 13:35:00
8:55 AM,45.3,40.8,84,30.06,10.0,WNW,4.6,-,N/A,,Clear,290,2013-03-28 13:55:00
9:15 AM,47.1,41.9,82,30.07,10.0,NW,4.6,-,N/A,,Clear,320,2013-03-28 14:15:00
11:55 PM,63.7,50.9,63,30.04,10.0,ESE,12.7,-,N/A,,Clear,110,2013-03-29 04:55:00